GFSFLT2_prec_cloud_069.txt.gz
Cloud_Cover
35 91 100 67 4 1 75 100 100 100 100 100 100 100 100 67 100 100 100 49 19 5 29 36 97 15 72 8 100 100 96 100
19 57 44 10 17 4 76 100 100 100 100 100 100 100 100 100 100 100 100 100 100 94 98 100 95 5 5 11 100 100 98 100
1 11 19 97 100 82 81 100 100 100 100 100 100 100 100 100 100 94 100 55 72 100 96 100 88 6 10 29 100 100 100 100
4 34 55 49 86 100 100 100 100 100 100 100 100 100 100 100 100 100 87 88 92 100 100 99 54 86 81 100 100 100 100 100
24 74 100 98 100 100 100 100 100 100 100 100 100 100 100 100 100 84 96 100 49 70 100 100 92 87 91 100 100 100 100 100
75 100 100 100 100 100 100 100 100 100 100 100 100 100 100 100 100 99 100 98 53 90 85 100 100 100 100 100 100 100 100 100
100 100 100 100 100 100 100 100 100 100 100 100 100 100 100 100 100 91 100 100 91 35 89 100 93 73 99 100 100 100 100 100
100 100 100 100 100 100 93 75 100 100 100 100 100 100 100 100 100 89 100 100 92 77 98 100 98 70 99 100 100 100 100 100
100 100 100 97 100 100 100 97 100 100 100 100 100 100 99 100 100 100 100 94 60 80 100 100 98 15 90 100 100 100 100 100
88 99 100 100 100 99 100 100 100 100 100 100 100 100 100 100 100 100 77 51 100 100 100 99 100 67 95 100 100 100 100 100
95 100 100 89 100 100 82 100 100 100 100 100 100 100 100 100 100 100 100 100 100 100 100 93 100 100 100 100 100 100 100 100
85 100 97 100 100 100 99 100 100 100 100 100 100 100 100 100 100 100 100 100 100 100 100 95 100 100 94 93 87 100 100 100
100 100 100 100 100 100 100 100 100 100 100 100 100 100 100 100 100 100 100 94 98 100 100 98 99 100 95 100 94 100 100 100
100 100 100 100 100 100 100 100 100 100 100 100 100 100 100 100 100 100 100 100 100 100 82 99 100 100 100 100 100 100 100 100
72 95 100 100 100 100 100 100 100 100 100 100 100 100 100 100 100 100 100 100 100 100 100 99 91 99 100 100 100 100 100 100
34 87 100 100 99 100 100 100 100 100 100 100 100 100 100 100 100 100 100 100 100 100 98 94 100 100 100 100 100 100 100 100
75 100 100 64 92 100 100 100 100 100 100 100 100 100 100 100 100 100 100 100 100 100 100 100 95 100 100 100 100 100 100 100
100 100 72 19 38 98 100 97 100 100 98 100 100 100 100 100 100 100 100 100 100 100 100 100 100 100 100 100 100 100 100 100
100 100 97 32 56 87 20 10 76 100 100 100 100 100 100 100 100 100 100 100 100 100 100 100 100 100 100 100 100 100 100 100
100 100 100 78 32 66 26 10 17 91 100 100 100 100 98 100 100 100 100 100 100 100 100 100 100 100 100 100 100 100 100 100

GFSFLT2_prec_cloud_072.txt.gz
Cloud_Cover
59 100 99 20 22 0 66 100 100 100 100 100 100 100 100 100 100 100 100 100 100 100 40 32 33 20 100 5 45 95 100 98
48 99 100 87 52 56 100 100 100 100 100 100 100 100 100 100 100 100 100 100 100 100 18 97 89 5 87 67 97 100 99 57
48 100 100 71 8 53 12 100 100 100 100 100 100 100 100 100 100 100 100 100 100 100 100 87 29 43 99 100 98 79 62 80
26 66 72 40 45 79 20 24 100 100 100 100 100 100 100 100 100 100 100 100 100 49 69 94 41 23 100 96 94 94 100 100
34 84 100 100 100 100 98 98 100 100 100 100 100 100 100 100 100 100 100 100 100 14 50 36 100 100 89 89 94 100 100 100
36 100 100 100 100 100 100 99 100 100 100 100 100 100 100 100 100 100 100 100 100 57 90 84 98 84 68 100 72 100 100 100
100 100 100 100 100 100 100 100 100 100 100 100 100 100 100 89 100 100 100 100 100 38 96 76 99 88 57 100 100 96 99 100
100 100 100 100 100 94 100 100 100 100 100 100 100 100 100 100 100 100 100 100 100 94 100 92 98 69 79 82 98 100 100 100
100 100 100 100 100 96 100 100 100 100 100 100 100 100 100 100 100 100 100 100 100 100 75 98 72 6 62 90 99 100 100 100
100 100 100 100 100 100 98 100 100 100 100 100 100 100 100 100 100 100 100 100 100 100 100 65 67 66 82 74 100 100 100 100
100 100 100 100 100 98 100 100 100 100 100 100 100 100 100 100 100 100 100 100 100 100 100 95 100 91 100 79 96 100 100 99
100 100 100 85 59 100 100 100 100 100 100 100 100 100 100 100 100 100 100 100 100 100 100 100 96 73 93 75 91 100 100 95
100 100 99 100 91 100 100 100 100 100 100 100 100 100 100 100 100 100 100 100 100 100 100 100 100 70 63 92 90 100 100 100
100 100 100 100 100 99 100 100 100 100 100 100 100 100 100 100 100 100 100 100 100 100 100 100 88 100 100 100 84 85 88 100
100 100 100 100 100 100 100 96 100 100 100 100 100 100 100 100 100 100 100 100 100 100 100 100 100 100 100 70 96 100 100 100
100 100 100 100 100 100 100 100 91 100 100 100 100 100 100 100 100 100 100 100 100 100 100 100 100 100 97 85 100 99 100 100
100 99 100 100 100 100 100 100 73 100 100 100 100 100 100 100 100 100 100 100 100 100 100 100 100 100 100 85 100 99 100 100
65 100 100 100 100 100 100 100 100 90 98 100 100 100 100 100 100 100 100 100 100 100 100 100 100 100 100 100 100 100 100 100
100 100 100 100 100 100 100 100 100 100 100 92 100 100 100 100 100 100 100 100 100 100 100 100 100 100 100 100 100 100 100 100
100 100 100 100 78 70 100 100 98 93 100 99 100 100 100 100 100 100 100 100 100 100 100 100 100 100 100 100 100 100 100 100

GFSFLT2_prec_cloud_075.txt.gz
Cloud_Cover
100 100 98 100 100 24 0 2 97 100 100 100 100 100 100 100 100 95 57 10 51 97 99 39 10 51 100 98 100 71 99 87
88 100 100 100 59 61 1 4 100 100 100 100 100 100 100 100 100 100 100 100 100 100 100 99 81 5 99 91 73 5 16 26
85 100 99 100 73 96 7 5 100 100 100 100 100 100 100 100 100 100 100 100 100 100 100 76 100 42 99 89 18 5 0 13
62 88 57 100 69 93 30 0 57 100 100 100 100 100 100 100 100 100 100 100 100 100 100 100 94 76 8 45 93 89 87 11
44 94 100 100 100 100 94 61 25 94 100 100 100 100 100 100 100 100 100 100 100 100 100 29 88 12 5 82 28 96 99 78
42 100 100 100 100 100 100 97 100 100 99 98 100 100 100 100 100 100 100 100 98 89 98 97 14 26 11 57 47 70 98 100
66 100 92 100 100 100 100 100 73 89 100 100 100 100 100 100 100 100 100 100 100 99 90 88 25 72 88 94 100 98 100 100
97 100 100 100 100 100 100 100 72 92 100 100 100 100 100 100 100 100 100 100 100 100 92 95 70 40 100 100 100 90 98 100
100 98 100 100 100 100 100 100 100 100 100 100 100 98 100 100 100 100 100 100 100 100 92 54 40 11 100 100 52 99 100 100
97 100 100 100 100 100 100 100 100 100 100 100 100 99 100 100 100 100 100 100 100 100 100 83 84 83 69 64 97 100 100 100
98 100 100 100 100 100 100 100 100 100 100 100 100 100 100 100 100 100 100 100 100 100 100 67 100 78 97 97 100 100 84 100
86 100 100 100 100 100 100 100 100 100 100 98 100 100 100 100 100 100 100 100 100 100 86 100 100 100 71 26 100 100 100 100
100 100 100 100 100 100 100 100 100 100 100 100 100 100 100 100 100 100 100 100 100 100 100 100 100 100 99 81 100 100 78 94
100 90 90 97 50 61 100 100 100 100 100 100 100 100 100 100 100 100 100 100 100 100 100 100 100 100 83 99 96 91 98 100
97 76 100 74 100 100 100 100 100 100 100 100 100 100 100 100 100 100 100 100 100 100 100 100 100 99 78 71 85 99 100 100
70 95 100 100 100 100 100 100 100 100 100 100 100 100 100 100 100 100 100 100 100 100 100 100 100 100 100 98 94 100 100 100
100 100 97 100 100 100 100 100 88 100 100 100 100 100 100 100 100 100 100 100 100 100 100 100 100 100 100 88 99 100 100 100
100 100 99 100 100 79 100 100 100 88 100 100 100 100 100 100 100 100 100 100 100 100 100 100 100 100 100 100 100 100 100 100
100 100 100 100 100 98 100 100 100 100 100 100 100 100 100 100 100 100 100 100 100 100 100 100 100 100 100 100 100 100 100 100
100 100 100 100 100 100 100 100 100 100 100 100 100 100 100 100 100 100 100 100 100 100 100 100 100 100 100 100 100 100 100 100

GFSFLT2_prec_cloud_078.txt.gz
Cloud_Cover
5 85 35 1 4 0 0 6 0 5 78 100 100 100 100 100 100 100 100 80 71 86 26 38 10 13 56 5 1 2 92 100
98 100 100 53 74 48 0 0 0 0 88 100 100 100 100 100 100 100 100 100 96 24 26 100 40 32 6 31 29 2 63 89
76 100 100 43 96 72 63 0 0 1 98 100 100 100 100 100 100 100 100 100 100 100 98 100 100 100 100 33 89 50 58 63
32 100 100 70 89 88 29 27 9 8 100 100 100 100 100 100 100 100 100 100 100 100 85 100 85 59 41 24 100 66 16 7
0 54 7 35 49 99 37 53 56 73 100 100 100 100 100 100 100 100 100 100 100 100 89 99 96 48 79 43 57 54 15 5
0 16 14 67 100 100 68 30 53 50 100 100 100 100 100 100 100 100 100 100 100 100 98 100 92 100 78 92 38 17 73 32
0 84 91 100 100 100 100 50 100 100 100 97 100 98 100 100 100 100 100 100 100 100 100 100 97 80 60 34 95 58 16 100
0 13 99 55 82 92 100 100 97 100 100 68 91 92 100 100 100 100 100 100 100 100 83 92 99 88 65 85 98 100 100 99
3 28 100 81 31 97 100 100 100 100 100 96 99 68 100 100 100 100 100 100 100 100 90 100 99 100 58 94 98 100 100 98
17 25 82 59 54 100 100 100 100 100 100 100 100 100 100 100 100 100 100 100 100 100 100 100 97 100 100 90 94 88 100 100
64 3 67 68 90 100 99 100 100 100 100 100 100 100 100 83 100 100 100 100 100 100 100 99 100 99 100 100 88 89 92 100
100 52 64 73 100 86 100 100 100 100 100 100 100 98 100 100 100 100 100 100 100 100 100 100 100 90 100 96 98 88 89 85
99 76 100 95 97 100 100 100 100 100 100 100 100 100 100 100 100 100 100 100 100 100 100 100 100 100 100 100 100 100 99 100
66 47 100 100 80 100 100 100 100 100 93 100 82 94 82 100 100 100 100 100 100 100 100 100 100 100 95 100 100 100 100 95
49 33 100 58 78 99 97 85 100 99 95 100 100 100 96 100 100 100 100 100 100 100 100 100 100 100 100 100 100 85 100 100
86 100 82 42 42 44 39 51 100 75 100 100 100 100 100 100 100 100 100 100 100 100 100 100 100 100 100 100 100 90 96 100
100 100 94 33 36 8 20 86 100 76 98 100 100 100 100 100 100 100 100 100 100 100 100 100 100 100 100 100 100 100 100 99
100 95 95 39 45 35 47 50 100 95 100 100 100 100 100 100 100 100 100 100 100 100 100 100 100 100 100 100 100 100 100 100
100 70 100 99 32 27 35 68 68 97 73 100 100 100 100 100 100 100 100 100 100 100 100 100 100 100 100 100 100 100 100 100
100 70 100 100 44 15 80 42 66 100 100 100 100 100 100 100 100 100 100 100 100 100 100 100 100 100 100 100 100 100 100 100

GFSFLT2_prec_cloud_081.txt.gz
Cloud_Cover
0 0 1 0 0 0 0 0 1 20 9 4 97 100 100 100 100 100 100 100 99 100 42 13 16 47 18 5 6 95 95 97
5 5 6 3 8 3 0 0 0 0 0 2 100 100 100 100 100 100 100 100 100 100 86 15 40 11 5 5 3 0 75 85
30 54 0 0 47 31 50 4 0 7 1 0 100 100 100 100 100 100 100 100 100 100 100 5 9 56 100 100 50 2 51 91
25 95 1 0 3 96 65 85 2 2 1 1 93 100 100 100 100 100 100 100 100 100 88 28 57 100 100 100 76 91 69 100
6 72 10 3 0 97 41 100 89 58 81 29 74 100 100 100 100 100 100 100 100 100 100 100 30 42 96 6 78 100 86 88
1 21 0 0 0 70 8 84 100 68 59 27 100 100 100 100 100 100 100 100 100 100 100 100 91 68 90 5 100 25 99 99
0 7 0 0 42 54 66 21 89 83 90 23 100 100 100 100 100 100 100 100 100 100 100 100 100 94 62 13 99 94 100 97
0 22 1 33 59 100 100 42 77 40 76 52 100 100 100 100 100 100 100 100 100 100 100 100 100 64 100 98 91 66 97 100
0 44 21 6 0 95 100 60 100 94 100 93 33 100 100 100 100 100 100 100 100 100 100 100 86 97 97 100 70 75 100 100
0 28 22 0 0 56 100 98 100 100 94 81 77 49 67 100 100 100 100 100 100 100 100 100 100 100 100 89 100 52 100 100
1 44 14 4 1 89 100 100 100 97 100 100 91 70 71 61 88 100 100 100 100 100 100 100 100 100 100 97 100 60 98 100
5 30 25 22 28 100 91 100 100 100 100 100 69 75 93 100 51 100 100 100 100 100 100 100 100 100 100 100 100 100 100 98
0 20 27 17 1 53 100 94 100 100 97 99 85 89 74 87 100 100 100 100 100 100 100 100 100 100 100 100 100 100 100 99
0 26 40 9 34 91 100 70 49 57 92 89 92 64 94 52 87 100 100 100 100 100 100 100 100 100 100 100 99 99 99 79
0 54 99 7 78 100 100 41 70 95 100 74 99 55 71 70 100 100 100 100 100 100 100 100 100 100 100 100 100 96 81 100
4 100 40 31 98 100 86 92 63 76 72 58 46 100 100 100 100 100 100 100 100 100 100 100 100 100 100 100 100 100 100 100
99 100 89 100 100 100 31 5 86 64 91 64 100 98 100 92 100 100 100 100 100 100 100 100 100 100 100 100 100 100 100 100
100 93 100 100 100 35 6 13 53 67 100 88 100 100 100 100 100 100 100 100 100 100 100 100 100 100 100 100 100 100 100 100
100 100 100 100 100 16 5 10 97 23 72 74 100 100 100 100 100 100 100 100 100 100 100 100 100 100 100 100 100 100 100 100
100 100 100 100 87 6 4 8 100 100 100 89 100 100 100 100 100 100 100 100 100 100 100 100 100 100 100 100 100 100 100 100

GFSFLT2_prec_cloud_084.txt.gz
Cloud_Cover
67 51 27 1 0 0 0 0 0 84 75 11 0 2 98 100 100 100 100 100 100 100 100 100 100 100 53 4 0 0 27 2
31 5 0 0 0 3 0 0 0 0 0 0 0 1 100 91 100 100 100 100 100 100 100 100 65 58 25 5 5 2 35 18
94 33 5 0 0 0 0 0 0 5 5 0 37 0 97 100 100 100 100 100 100 100 100 100 100 41 5 5 47 79 24 41
99 67 5 4 3 0 0 0 0 0 0 0 0 0 82 100 100 100 100 100 100 100 100 100 100 95 7 5 86 100 100 98
100 100 86 5 2 3 0 0 0 0 0 0 0 3 67 100 100 100 100 100 100 100 100 100 99 14 19 91 94 18 72 96
100 100 90 65 74 0 0 0 0 0 0 0 0 33 97 100 100 100 100 100 100 100 100 100 100 66 16 6 34 83 97 59
100 99 18 3 0 0 0 0 0 26 0 0 8 19 30 100 100 100 100 100 100 100 100 100 100 96 100 32 34 98 73 74
83 8 0 2 0 0 0 0 1 0 0 9 10 2 25 100 100 100 100 100 100 100 100 100 100 100 100 100 42 88 72 82
100 3 0 0 0 17 0 0 0 2 0 0 6 67 90 100 100 100 100 100 100 100 100 100 100 100 100 100 96 72 100 45
42 5 0 0 3 2 20 95 28 0 5 99 20 11 88 100 100 100 100 100 100 100 100 100 100 100 100 100 100 99 100 10
100 41 2 0 2 1 5 92 3 0 92 100 57 34 12 94 100 100 100 100 100 100 100 100 100 100 100 100 100 97 97 98
100 9 13 8 42 4 7 93 89 35 27 73 55 33 11 23 100 100 100 100 100 100 100 100 100 100 100 100 100 100 77 100
100 79 18 0 36 5 44 74 100 52 95 100 96 15 9 33 62 57 100 100 100 100 100 100 100 100 100 100 100 100 100 100
100 58 4 8 23 5 2 0 3 18 60 93 100 39 85 54 65 96 100 100 100 100 100 100 100 100 100 100 100 100 100 100
63 6 0 6 5 4 37 17 15 100 100 50 20 96 100 37 99 100 100 97 100 100 100 100 100 100 100 100 100 100 100 99
0 0 0 26 5 79 7 5 37 84 99 12 20 50 45 35 98 100 82 100 100 100 100 100 100 100 100 100 100 99 99 100
0 0 0 12 100 88 5 54 100 75 6 28 100 99 50 59 92 99 100 100 100 100 100 100 100 100 100 100 100 100 100 98
0 0 0 98 100 56 92 100 100 5 44 100 100 100 100 100 92 100 100 100 100 100 100 100 100 100 100 100 100 100 100 100
0 1 27 100 70 72 100 100 86 21 88 98 100 100 100 100 100 100 100 100 100 100 100 100 100 100 100 100 100 100 100 100
0 3 80 100 69 100 100 100 2 1 28 45 47 98 100 100 100 100 100 100 100 100 100 100 100 100 100 100 100 100 100 100

GFSFLT2_prec_cloud_087.txt.gz
Cloud_Cover
7 8 100 100 96 32 5 4 3 4 1 69 0 0 0 0 40 100 100 100 100 100 100 100 100 100 100 70 12 4 3 3
6 97 100 44 94 6 6 5 2 0 0 3 0 0 0 0 69 100 100 100 100 100 100 100 100 100 97 8 4 5 60 33
100 100 100 37 100 24 24 19 5 5 1 0 0 2 0 9 69 100 100 100 100 100 100 100 100 100 100 100 5 4 2 32
100 87 100 100 100 58 93 67 26 7 1 0 4 16 29 47 69 100 100 100 100 100 100 100 100 100 100 100 99 50 0 10
100 77 93 100 83 100 98 37 50 6 0 0 13 40 61 95 80 100 100 100 100 100 100 100 100 100 100 100 100 90 39 33
100 93 100 96 100 100 100 100 72 4 0 0 40 95 66 98 53 100 100 100 100 100 100 100 100 100 60 100 78 100 100 21
100 44 92 11 100 100 100 88 2 0 0 0 16 48 39 34 20 100 100 100 100 100 100 100 100 100 100 100 100 92 77 4
54 61 40 97 100 100 52 1 0 0 0 0 7 28 4 17 21 75 100 100 100 100 100 100 100 100 100 100 74 100 83 49
5 54 100 100 100 38 7 0 4 0 0 0 0 0 0 27 37 29 100 100 100 100 100 100 100 100 100 100 93 100 67 54
6 68 100 100 100 93 59 3 24 3 3 0 0 0 2 100 44 100 100 100 100 100 100 100 100 100 100 100 100 100 86 76
99 100 100 100 100 100 100 5 18 35 1 0 0 0 12 96 53 100 100 100 100 100 100 100 100 100 100 100 100 100 100 99
100 100 100 100 100 100 96 6 81 24 17 0 0 70 66 44 56 82 100 100 100 100 100 100 100 100 100 100 100 100 100 99
100 100 100 100 100 88 91 100 100 80 32 0 0 8 27 55 93 100 99 100 100 100 100 100 100 100 100 100 100 100 100 100
100 100 100 100 92 52 100 95 100 50 20 2 0 9 30 48 91 100 94 74 100 100 100 100 100 100 100 100 100 100 100 100
100 100 93 100 32 85 46 3 19 39 16 2 14 36 18 50 90 100 89 85 100 100 100 100 100 100 100 100 100 100 100 100
100 100 100 100 100 54 29 27 76 33 0 6 16 23 30 69 93 91 92 96 95 100 99 100 100 100 100 100 100 100 100 100
100 100 58 8 5 5 5 5 95 25 5 97 23 33 50 59 79 100 100 100 86 98 100 100 100 100 100 100 100 100 100 100
100 100 100 73 2 1 78 50 45 9 5 22 46 95 91 61 80 89 81 100 100 98 100 100 100 100 100 100 100 100 100 100
100 100 65 2 4 3 62 82 74 6 5 39 93 100 100 100 95 100 100 100 100 100 100 100 100 100 100 100 100 100 100 100
22 4 15 48 6 60 31 5 94 24 35 5 68 73 96 100 74 100 100 100 100 100 100 100 100 100 100 100 100 100 100 100

GFSFLT2_prec_cloud_093.txt.gz
Cloud_Cover
50 56 32 10 13 12 16 7 3 0 0 0 1 5 5 5 0 0 0 0 0 2 10 37 100 100 100 100 100 100 92 36
100 100 65 65 44 10 15 26 25 20 9 1 6 83 21 4 0 0 0 0 0 2 31 100 100 100 100 100 100 100 100 10
100 100 100 100 100 80 21 23 35 32 23 16 100 99 59 25 94 32 3 0 0 0 3 100 100 100 100 100 100 100 100 32
100 100 100 100 96 56 59 79 85 57 36 32 100 100 96 9 5 55 6 0 0 4 1 100 100 100 100 100 100 100 100 100
73 100 100 100 75 100 100 99 45 37 25 27 100 86 79 36 67 56 29 9 34 16 5 100 100 100 100 100 100 100 100 100
99 100 100 100 47 95 100 100 98 93 49 34 98 100 100 100 86 73 34 50 48 82 98 100 100 100 100 100 100 100 100 100
91 100 100 100 87 62 94 99 100 62 56 67 100 100 100 100 100 100 90 99 78 82 69 100 100 100 100 100 100 100 100 100
22 64 100 100 88 45 45 51 52 56 64 99 100 100 100 100 100 100 100 100 47 40 62 100 100 100 100 100 100 100 100 100
2 59 69 92 100 94 76 42 43 44 55 98 100 100 100 100 100 100 100 100 99 40 43 100 100 100 100 100 100 100 100 100
5 18 61 100 100 100 41 78 46 45 53 85 100 100 100 100 100 100 100 100 100 85 63 100 100 100 100 100 100 100 100 100
3 5 35 100 100 100 13 31 47 66 56 100 100 100 100 58 99 100 100 100 100 100 67 100 100 100 100 100 100 100 100 100
54 63 98 93 100 71 48 54 57 87 100 98 100 100 100 81 100 100 100 100 100 100 100 100 100 100 100 100 100 100 100 100
100 81 100 83 100 100 98 61 72 100 100 100 100 100 100 100 100 100 100 100 100 100 100 100 100 100 100 100 100 100 100 100
47 100 100 100 100 100 31 18 98 100 100 100 99 54 92 99 100 100 100 100 100 100 100 100 100 100 100 100 100 100 100 100
70 100 100 100 100 100 57 76 100 100 100 100 100 82 65 90 74 100 100 100 100 100 100 100 100 100 100 100 100 100 100 100
46 100 100 100 100 98 20 89 87 100 100 100 100 86 63 48 88 90 100 100 100 100 100 100 100 100 100 100 100 100 100 100
100 100 78 100 75 19 29 94 100 100 100 100 100 84 86 100 100 100 100 100 100 100 100 100 100 100 100 100 100 100 100 100
100 100 100 100 100 93 99 100 100 100 100 100 98 100 100 100 100 89 86 100 100 100 100 100 100 100 100 100 100 100 100 100
100 100 100 100 100 99 100 100 100 100 100 100 100 100 100 100 100 100 100 100 99 100 100 100 100 100 86 100 100 100 100 100
100 100 100 100 100 100 100 100 100 100 100 100 100 100 94 94 100 100 100 100 100 100 100 100 100 96 100 100 100 100 100 100

GFSFLT2_prec_cloud_096.txt.gz
Cloud_Cover
70 78 36 5 5 14 2 0 2 4 1 0 0 0 0 0 0 1 0 0 0 0 0 0 0 2 97 100 100 100 100 100
100 100 99 67 29 9 5 5 7 45 72 2 4 0 0 0 100 99 2 0 0 0 0 0 0 12 97 100 100 100 100 100
100 100 100 100 96 99 100 99 100 100 86 6 30 19 6 0 84 61 2 0 4 0 0 0 33 63 18 100 100 100 100 86
100 100 100 100 100 99 81 100 100 100 100 60 41 36 27 11 100 5 4 0 1 2 0 0 13 44 29 100 100 100 100 100
99 100 100 100 100 100 100 100 100 100 100 68 57 71 69 41 89 35 35 21 65 34 16 15 29 25 50 100 100 100 100 100
10 89 100 100 100 100 100 100 100 100 100 53 100 100 100 96 100 73 44 54 82 43 32 13 29 32 97 100 100 100 100 100
5 21 72 97 100 100 100 100 100 100 100 87 100 100 100 100 100 83 48 46 75 100 99 82 34 60 90 100 100 100 100 100
4 10 6 31 100 100 100 100 100 100 100 100 100 100 100 100 100 100 100 64 94 100 100 100 74 59 100 100 100 100 100 100
100 4 39 9 44 43 93 100 100 100 100 100 100 100 100 100 100 100 100 100 100 76 100 100 100 100 98 100 100 100 100 100
10 5 32 15 2 11 100 68 78 97 100 100 100 100 100 100 100 100 100 100 100 87 100 100 99 56 100 100 100 100 100 100
5 5 17 73 21 7 61 100 68 67 100 100 100 100 100 100 100 100 100 100 100 100 100 100 100 76 100 100 100 100 100 100
1 96 5 45 64 91 97 100 100 97 100 100 100 100 100 100 100 100 100 100 100 96 95 100 100 100 100 100 100 100 100 100
0 5 2 49 89 100 100 100 100 100 100 100 100 100 100 100 100 100 100 100 100 100 100 100 100 100 100 100 100 100 100 100
0 0 1 30 8 99 100 100 100 100 100 100 100 100 100 100 100 100 100 100 100 100 100 100 100 100 100 100 100 100 100 100
0 6 0 28 65 100 81 81 98 100 100 100 100 100 100 100 100 100 100 100 100 100 100 100 100 100 100 100 100 100 100 100
0 14 92 100 78 100 100 30 75 100 100 97 100 100 100 100 100 100 100 85 100 100 100 100 100 100 100 100 100 100 100 100
58 100 100 100 100 100 100 85 100 100 60 100 100 100 100 100 100 100 100 100 100 100 100 100 100 100 100 100 100 100 100 100
92 100 100 100 100 100 100 13 100 91 90 99 100 100 100 100 100 100 100 100 100 93 100 100 100 100 100 100 100 100 100 100
100 100 100 75 100 100 99 94 99 63 90 100 100 100 100 100 100 100 100 100 100 90 91 100 100 100 100 100 100 100 100 100
100 100 100 100 100 100 100 100 100 100 100 100 100 100 100 100 100 100 100 100 82 100 100 100 100 100 100 100 100 100 100 100

GFSFLT2_prec_cloud_099.txt.gz
Cloud_Cover
59 39 60 39 22 7 1 4 5 66 56 27 0 0 0 38 9 0 0 1 1 0 0 0 0 0 0 0 8 100 100 100
99 99 100 97 66 15 1 0 0 5 61 100 100 33 5 76 65 3 0 0 68 0 0 0 0 0 6 0 29 100 100 100
100 100 100 100 100 86 38 12 3 6 3 12 68 79 83 100 16 2 2 0 44 3 3 1 0 17 8 27 8 53 100 100
100 100 100 100 100 100 82 81 44 55 48 34 30 84 32 94 9 5 2 1 0 4 5 1 36 8 32 41 19 90 100 100
56 100 100 100 100 100 100 100 100 100 98 100 89 61 23 26 50 31 23 1 2 17 9 0 7 22 8 33 68 84 100 100
5 45 33 97 100 100 100 100 100 100 100 100 100 100 100 74 67 57 60 42 76 57 78 77 23 22 22 37 59 45 100 100
32 38 5 18 100 100 100 100 100 100 100 100 100 100 100 82 93 89 58 61 70 76 95 77 59 46 65 55 5 22 100 100
90 36 39 27 98 30 77 100 100 100 100 100 100 100 100 100 100 100 74 90 95 94 97 98 77 74 96 95 71 69 100 100
65 14 7 30 29 7 60 80 96 100 100 100 100 100 100 100 100 100 100 98 100 100 100 100 98 98 96 100 100 57 100 100
81 30 5 27 71 88 98 60 70 100 100 100 100 100 100 100 100 100 100 50 100 100 100 100 100 74 85 100 94 77 100 100
5 5 25 96 100 83 47 66 69 89 100 100 100 100 100 100 100 100 100 96 100 100 100 99 100 100 100 100 99 100 100 100
30 95 92 87 5 34 86 95 94 91 77 100 100 94 100 100 100 100 100 100 100 100 100 100 100 100 100 100 100 100 100 100
58 5 5 35 72 23 49 100 100 85 53 100 100 97 100 100 100 100 100 100 100 100 100 100 100 100 100 100 100 100 100 100
91 16 0 8 44 0 0 36 100 98 100 100 100 94 100 100 100 100 100 100 100 100 100 100 100 100 100 100 100 100 100 100
17 33 9 0 0 0 34 93 100 100 100 100 100 100 100 100 100 100 100 100 100 100 100 100 100 100 96 100 100 100 100 100
100 100 70 24 25 13 76 69 100 100 100 100 100 100 100 100 100 100 100 100 100 100 90 100 100 100 100 95 100 100 100 100
100 100 100 100 99 0 26 100 100 86 100 100 100 100 100 100 100 100 100 100 100 99 100 100 100 100 100 100 100 100 100 100
100 100 100 100 100 70 99 100 93 100 99 100 100 98 100 100 100 100 100 100 100 95 76 100 100 100 100 100 100 100 100 100
100 100 100 100 98 75 100 100 100 92 100 98 59 72 100 100 100 100 100 100 100 100 99 100 100 100 100 100 100 100 100 100
100 100 100 100 99 100 100 100 100 100 100 100 37 100 100 100 100 100 100 100 100 100 95 100 100 98 100 100 100 100 100 100

GFSFLT2_prec_cloud_102.txt.gz
Cloud_Cover
13 36 19 54 0 0 1 0 0 0 0 0 0 0 1 0 5 4 5 4 4 5 0 3 84 52 0 0 0 4 5 22
37 88 100 23 1 20 1 0 0 0 0 3 1 9 0 4 13 10 62 50 5 0 0 0 0 5 0 0 0 11 5 74
96 100 100 100 55 18 53 22 1 9 5 2 68 26 47 5 0 1 10 91 53 1 1 1 0 12 20 14 26 20 20 20
0 53 75 100 100 96 41 26 2 4 2 0 0 11 19 2 1 0 4 4 24 4 5 1 41 99 74 54 62 96 31 17
0 12 100 44 78 92 100 100 80 56 33 11 18 8 14 35 71 15 8 12 56 20 14 2 6 31 100 15 21 27 40 12
8 100 89 10 4 23 63 73 100 100 100 96 34 48 5 6 9 90 94 99 100 76 98 63 70 87 80 73 75 59 95 55
86 19 17 5 4 5 6 46 32 92 98 100 100 100 54 5 8 50 92 100 100 94 69 100 74 75 98 65 100 73 74 39
32 80 66 7 45 92 21 5 5 43 99 100 100 100 100 100 100 91 12 100 100 100 89 92 84 100 100 100 94 95 92 40
100 100 32 67 100 98 59 7 24 73 100 100 100 100 90 42 100 100 99 100 100 100 97 79 64 76 98 95 66 87 70 61
97 80 100 100 100 78 42 20 21 74 100 100 100 100 100 100 100 92 100 99 100 100 100 88 99 78 99 93 67 97 84 87
100 100 100 100 100 100 85 97 98 86 100 100 100 100 99 100 100 100 100 100 100 100 100 100 100 85 99 98 70 7 100 98
95 100 100 96 100 100 100 58 100 100 99 100 100 100 85 100 100 100 100 100 100 100 100 100 100 100 95 99 84 100 98 94
5 5 5 8 32 6 65 12 15 98 100 100 97 100 100 100 100 100 100 100 100 100 100 100 100 100 99 100 100 81 79 100
6 5 2 4 38 43 23 76 100 100 86 46 75 100 100 100 100 94 100 100 100 100 100 100 100 100 100 100 100 100 100 100
100 23 37 10 20 4 49 100 100 100 100 77 72 99 100 100 100 92 100 100 100 100 100 100 100 100 84 76 100 96 100 100
16 61 40 38 83 49 4 4 5 9 2 18 100 99 100 98 95 100 100 100 100 100 100 100 100 100 100 98 96 67 100 100
41 78 94 70 100 100 86 0 0 0 3 87 100 100 100 100 100 100 100 94 98 100 100 100 90 99 100 95 99 96 100 100
80 64 98 100 100 100 100 76 5 9 4 100 100 100 100 100 96 100 100 100 100 100 100 100 98 95 100 100 100 100 88 100
83 80 100 100 100 100 100 100 76 98 61 100 100 100 100 100 100 100 100 100 100 100 100 100 100 91 100 100 99 100 100 100
85 76 100 100 100 100 100 82 78 82 100 100 100 100 100 100 100 100 100 100 100 100 100 100 100 100 89 100 100 100 100 96

GFSFLT2_prec_cloud_105.txt.gz
Cloud_Cover
17 21 7 27 0 0 0 0 0 0 4 0 0 0 0 0 0 4 3 2 0 0 5 5 4 5 0 0 0 0 0 34
60 93 24 7 2 7 0 4 5 26 4 0 3 7 0 4 1 6 5 28 5 17 2 0 5 5 0 1 0 46 0 37
100 100 100 26 17 8 53 24 4 12 3 2 68 0 2 0 0 0 0 24 40 5 6 41 4 8 0 0 24 100 43 34
100 100 100 100 51 94 8 2 14 10 0 0 0 1 2 0 0 0 0 2 0 0 0 1 48 8 12 48 90 100 69 80
87 99 97 100 92 72 86 81 87 12 13 11 9 5 13 13 10 4 3 12 2 18 14 10 25 9 47 28 26 100 70 98
93 97 100 100 65 68 93 59 72 10 8 15 8 1 0 0 5 42 25 40 26 81 1 7 100 100 90 57 5 97 100 65
5 44 16 75 97 56 46 40 36 82 35 40 15 5 3 0 5 48 100 100 91 50 52 70 88 77 98 76 31 47 100 94
5 5 6 2 8 68 73 100 100 81 8 98 100 100 44 5 6 67 100 100 100 74 45 94 10 22 43 98 46 86 100 100
89 52 54 28 86 99 100 86 22 34 100 90 99 100 100 99 100 100 28 2 53 22 7 21 68 88 39 56 56 100 100 99
5 14 98 98 100 96 95 39 92 91 100 100 100 100 100 100 100 100 100 3 4 9 42 10 94 93 100 100 44 80 100 97
5 5 5 11 87 100 100 100 100 100 100 100 100 100 100 100 100 100 100 5 14 80 68 73 86 68 96 99 76 99 100 92
5 5 5 5 2 7 100 100 100 100 100 100 97 71 100 91 96 100 100 91 91 75 98 72 100 96 100 99 100 99 99 30
54 5 1 5 5 7 49 46 81 62 22 57 35 72 100 73 95 100 100 95 100 81 99 100 78 100 100 76 100 67 28 86
14 8 15 17 87 100 100 100 100 95 100 100 98 84 100 100 100 100 99 93 97 33 100 100 100 96 100 100 100 100 100 86
69 72 99 99 88 35 16 10 10 51 10 5 8 5 4 90 89 100 100 98 100 18 100 97 100 58 100 100 100 100 100 75
5 8 8 12 56 67 66 17 1 0 0 1 0 1 15 98 55 100 100 100 100 41 74 96 100 80 99 100 100 80 50 100
3 40 40 63 89 86 88 98 42 0 0 0 0 0 12 100 100 100 100 100 99 70 100 100 88 87 97 100 96 39 70 99
73 81 71 100 93 100 100 100 100 21 1 0 0 0 1 96 100 100 96 100 67 99 100 86 90 17 34 100 62 95 87 100
100 100 95 93 100 100 100 100 100 99 33 0 27 47 76 55 100 100 100 100 81 100 100 100 100 33 51 100 100 100 56 99
100 100 84 94 100 100 100 100 100 100 77 44 26 55 67 70 100 100 100 100 100 100 100 100 100 100 100 100 100 31 31 100

GFSFLT2_prec_cloud_108.txt.gz
Cloud_Cover
1 0 0 0 0 0 3 5 3 0 0 0 0 0 4 2 0 0 0 0 0 0 2 5 4 5 5 4 0 0 0 0
78 83 0 13 1 5 1 0 1 0 0 0 0 6 5 0 0 0 0 0 0 0 0 0 0 0 2 5 6 0 0 0
0 100 100 0 2 5 15 1 0 3 2 6 90 19 6 0 0 0 0 0 0 0 0 0 0 2 0 0 11 1 0 0
5 19 100 89 1 2 5 0 0 0 0 5 8 44 37 5 0 0 0 0 0 0 0 0 24 0 9 50 5 0 0 3
5 4 25 100 68 99 24 4 0 2 5 35 100 85 5 4 4 0 1 5 5 20 43 0 0 0 0 0 0 0 0 2
82 13 61 3 92 40 91 13 9 71 95 49 3 0 11 100 58 0 100 6 5 5 0 0 0 4 6 4 0 2 5 5
5 43 51 88 37 21 84 96 100 100 95 99 89 100 100 100 88 5 5 4 76 5 5 2 5 11 99 75 0 2 47 53
4 2 1 83 20 3 16 41 100 100 100 100 100 100 68 80 96 5 42 100 99 98 10 5 5 8 79 5 0 0 9 100
31 11 0 5 5 5 2 30 28 87 100 100 85 27 5 60 100 100 100 8 99 15 8 83 17 3 5 5 3 0 5 78
7 10 12 3 5 5 4 0 22 6 60 74 47 99 100 100 99 100 100 100 78 5 16 65 1 0 5 10 3 0 1 18
22 80 100 98 34 6 12 5 2 10 5 7 71 83 100 100 100 100 100 80 46 59 0 0 2 1 5 98 100 38 1 18
0 6 7 49 98 100 92 21 5 0 3 42 7 6 9 11 43 14 97 70 10 5 5 4 0 5 13 100 100 20 12 66
1 3 48 73 49 14 30 10 11 5 5 5 64 70 66 69 69 40 80 67 90 100 86 5 4 16 24 100 100 99 100 98
99 62 86 29 27 22 14 20 87 98 100 100 100 100 83 76 61 61 87 100 100 100 100 100 74 32 57 100 100 82 98 99
81 98 100 98 68 35 44 54 61 12 5 5 5 5 5 2 4 3 86 100 100 100 100 100 50 87 100 28 88 36 35 63
5 88 99 75 5 3 18 57 91 4 43 50 5 20 83 0 0 0 9 4 100 100 100 100 65 95 96 100 4 2 1 95
7 100 91 5 5 67 74 61 71 34 1 0 0 0 94 2 0 2 18 0 0 88 54 100 100 23 96 100 31 99 10 6
86 63 100 34 50 96 76 100 100 100 96 22 0 0 0 97 78 62 26 10 8 3 93 100 100 37 42 100 67 5 21 6
100 100 100 99 96 82 100 100 100 100 100 100 23 0 0 100 100 100 59 73 100 67 99 100 100 77 76 100 62 90 25 5
100 71 100 100 100 82 100 100 100 100 100 100 95 18 13 100 100 100 42 35 100 100 36 100 50 58 72 100 99 100 27 45

GFSFLT2_prec_cloud_111.txt.gz
Cloud_Cover
5 4 2 0 0 0 0 0 0 0 0 1 2 0 0 0 0 0 0 0 0 0 0 0 0 0 0 0 0 0 0 0
5 5 10 19 10 0 0 0 2 1 5 0 4 0 0 0 0 2 5 14 4 0 0 0 0 0 0 0 0 2 0 0
17 8 5 14 18 10 0 0 0 8 7 6 83 38 13 1 0 1 33 100 8 4 1 0 0 0 0 0 13 19 0 0
5 6 6 27 9 11 17 6 6 19 44 98 100 42 32 11 2 11 100 66 22 91 5 65 3 13 22 10 34 9 0 0
100 100 100 100 100 42 11 5 5 6 5 38 53 33 79 37 36 5 6 5 60 100 38 76 20 12 17 31 24 0 3 0
100 100 98 98 100 100 100 48 50 11 60 52 46 89 100 89 90 30 13 100 100 100 52 18 29 100 6 4 0 5 0 0
95 100 80 19 36 68 54 97 52 48 14 5 95 100 100 100 100 98 100 67 4 5 5 48 83 72 100 4 0 5 0 5
92 59 52 8 24 83 32 10 40 54 39 8 98 96 100 98 100 100 43 5 0 4 96 57 5 89 50 92 2 5 0 0
100 100 100 100 8 55 5 4 47 32 7 88 79 100 100 100 87 9 8 5 39 2 0 3 5 12 100 64 3 0 0 0
100 81 50 5 6 39 42 2 0 0 1 0 40 32 89 100 26 5 0 4 4 5 14 5 5 34 51 4 5 0 0 0
71 16 5 5 0 5 81 70 15 5 5 10 48 18 22 78 5 0 0 28 9 0 0 0 17 81 90 84 100 68 4 6
4 1 0 0 0 0 4 18 52 5 5 0 0 1 4 4 67 54 28 44 53 14 5 5 22 100 100 100 99 93 100 33
5 5 0 2 0 0 0 5 92 94 100 83 5 2 0 2 7 59 67 13 5 56 32 68 98 83 95 100 100 100 100 99
2 5 5 2 0 0 16 93 18 28 64 29 84 94 67 60 54 8 5 4 7 13 82 93 100 100 100 100 100 100 100 100
5 5 5 5 5 2 5 5 98 100 76 99 42 2 4 2 4 0 7 1 20 67 90 100 100 100 100 100 100 100 100 100
71 78 97 54 37 57 94 5 14 64 83 79 5 4 0 0 3 4 0 0 11 8 34 100 100 100 100 100 100 100 100 100
100 95 99 100 100 100 25 5 35 100 55 56 14 0 0 0 7 35 66 5 4 89 72 100 100 100 100 100 100 100 100 100
100 99 100 100 100 100 85 52 45 89 100 100 99 93 26 0 0 0 0 30 2 33 100 100 100 80 100 100 100 100 100 100
100 95 72 79 64 73 100 96 99 100 100 100 100 100 100 85 14 0 0 17 78 100 100 100 100 100 74 79 100 99 100 100
93 93 100 81 95 100 100 100 99 99 100 100 100 100 100 100 83 2 0 13 98 100 100 100 100 100 24 98 100 100 100 100

GFSFLT2_prec_cloud_114.txt.gz
Cloud_Cover
26 22 0 0 0 3 0 2 0 0 0 2 0 0 0 0 0 0 0 0 0 0 2 2 5 4 0 0 0 0 3 5
13 12 7 11 8 5 10 10 8 0 3 5 10 2 5 5 2 0 0 0 0 0 1 5 22 6 3 4 0 4 16 0
10 23 20 20 19 9 5 7 13 9 5 5 57 41 13 2 2 0 0 0 1 5 5 72 14 45 56 5 13 25 17 20
14 16 24 30 4 17 57 67 76 89 87 78 95 97 54 33 5 2 1 3 21 75 46 5 10 92 40 11 37 37 21 4
62 70 60 24 86 65 98 41 58 59 92 100 100 100 94 70 70 37 24 5 18 98 83 94 100 46 34 34 29 100 30 66
100 100 100 100 100 100 49 69 32 39 94 76 100 100 100 100 98 61 88 72 36 70 100 100 96 24 12 20 100 24 73 20
100 100 100 100 100 100 100 49 60 33 52 63 100 90 46 73 91 98 73 23 40 46 54 88 50 38 70 100 23 61 8 38
100 100 100 100 100 100 100 100 100 97 94 24 100 85 70 100 100 100 100 100 100 96 38 41 40 21 24 14 4 3 5 5
100 100 100 100 100 76 100 100 91 100 100 70 100 100 100 100 100 100 100 100 100 87 19 22 31 22 3 2 2 5 5 5
100 100 100 100 74 9 22 99 100 16 44 48 68 98 100 100 100 100 100 100 100 100 75 54 48 36 57 40 27 53 29 86
69 60 100 8 5 45 12 17 5 5 1 13 18 21 68 19 89 100 100 100 100 100 100 94 52 42 27 28 42 73 83 100
36 26 14 5 13 3 7 5 0 2 2 0 0 0 0 18 14 41 54 100 100 100 100 100 91 97 68 100 100 100 100 100
6 1 5 5 44 5 5 5 0 0 0 0 0 3 5 5 0 21 15 7 5 63 100 100 100 100 100 100 100 100 100 100
100 90 5 5 5 5 5 1 0 0 0 0 0 3 10 12 6 7 13 28 4 63 98 86 100 100 100 100 100 100 100 100
35 97 18 6 5 5 5 4 0 0 3 0 5 5 5 3 3 15 80 31 88 45 11 19 44 92 98 100 100 100 100 100
49 85 100 94 5 18 17 17 73 60 68 7 5 5 100 51 3 5 4 2 12 43 38 5 28 85 100 100 100 100 100 100
44 96 100 100 9 63 98 96 98 100 100 100 100 97 30 5 5 14 0 2 0 34 88 58 2 16 96 100 100 100 100 100
91 100 84 93 49 78 79 100 100 100 84 97 100 100 100 100 100 97 52 11 4 0 52 51 2 0 1 90 100 100 100 100
100 100 100 100 76 84 100 100 100 100 100 100 100 100 100 100 100 100 100 90 35 1 68 70 54 27 2 11 77 100 100 100
99 100 100 100 100 52 98 100 100 100 100 100 100 100 100 100 100 100 100 100 100 18 25 48 23 54 9 100 100 100 100 100

GFSFLT2_prec_cloud_117.txt.gz
Cloud_Cover
5 46 4 0 5 5 8 0 0 0 0 1 0 0 0 0 0 0 2 4 4 0 0 0 0 0 0 0 1 2 0 8
9 21 20 19 11 5 7 14 6 3 3 13 17 2 2 0 0 0 0 0 1 5 3 5 0 1 0 0 4 5 5 2
10 18 93 70 13 29 28 13 17 20 15 20 81 44 10 2 2 0 0 0 2 21 51 44 6 5 5 0 8 49 23 22
20 21 22 27 91 10 27 38 62 82 91 76 97 100 87 37 4 2 4 1 5 38 100 100 60 21 21 33 41 30 29 25
100 87 79 55 97 73 50 90 100 100 100 100 100 100 100 99 89 60 36 12 28 63 100 96 51 60 74 47 37 31 35 27
100 100 100 100 100 100 100 100 100 100 100 100 100 100 100 100 100 100 100 50 81 54 100 100 83 68 28 32 30 37 34 31
98 100 100 100 100 100 100 100 100 100 100 92 100 100 100 100 100 100 100 88 69 100 100 100 100 100 100 51 32 29 24 25
49 77 100 100 100 100 100 100 98 100 84 62 78 96 99 100 100 100 100 89 85 100 100 100 100 100 100 74 48 22 14 10
5 17 100 100 100 100 100 100 100 99 100 100 100 100 100 100 22 57 68 100 100 100 100 100 100 100 100 93 100 62 83 10
79 67 17 100 100 100 100 100 100 100 97 73 94 100 100 100 100 100 100 64 100 100 100 100 100 100 100 100 100 100 100 89
1 92 75 42 100 100 100 100 100 100 100 9 62 99 100 100 100 100 100 100 100 100 100 100 100 100 100 100 100 100 100 100
0 66 100 100 100 100 70 40 100 83 99 86 5 3 15 86 100 92 100 100 100 100 100 100 100 100 100 100 100 100 100 100
0 8 100 100 100 93 9 11 8 5 5 16 85 1 0 0 0 0 3 45 100 100 100 100 100 100 100 100 100 100 100 100
4 48 84 99 100 100 21 49 25 5 53 8 9 27 5 0 0 0 0 0 1 85 100 100 100 100 95 100 100 100 100 100
99 100 100 96 55 87 20 5 86 67 79 6 7 12 8 2 0 0 6 0 0 0 98 100 100 71 79 100 100 97 64 100
100 100 100 100 100 83 98 85 80 94 99 67 5 5 5 14 51 69 56 34 15 5 0 64 100 100 100 53 19 88 99 98
100 100 89 100 52 73 47 100 100 100 100 98 46 40 20 54 100 100 100 100 100 72 9 1 87 100 100 97 72 24 38 96
100 100 100 100 100 100 81 92 100 100 100 100 100 100 100 90 100 100 100 100 100 100 99 63 24 94 92 12 7 19 32 26
100 100 100 100 100 100 100 100 100 100 100 100 100 100 100 100 100 100 100 100 100 100 100 100 100 100 99 51 0 0 0 0
100 100 100 100 100 100 100 100 100 100 100 100 100 100 100 100 100 100 100 100 100 100 100 100 81 100 100 100 9 5 1 0

GFSFLT2_prec_cloud_123.txt.gz
Cloud_Cover
4 0 4 23 1 39 94 12 77 100 8 5 5 61 100 53 2 2 5 5 5 0 0 0 0 0 0 0 0 0 0 2
0 5 23 15 6 7 38 8 5 19 39 40 5 6 8 98 70 5 5 5 5 5 4 0 0 0 0 0 0 9 3 5
0 0 0 11 18 6 40 12 5 12 35 100 80 37 5 43 87 100 35 37 26 6 4 0 0 9 0 0 14 5 4 5
5 12 12 70 76 100 100 40 99 87 69 100 100 96 94 40 70 100 88 99 69 41 5 3 53 26 5 55 8 5 4 5
100 100 28 21 11 19 77 89 86 92 94 100 100 100 100 100 97 64 36 19 18 43 50 47 56 45 45 42 85 6 5 7
81 80 43 21 18 37 76 68 100 100 92 100 100 100 100 100 100 100 100 100 100 100 87 52 55 81 96 73 45 74 5 10
5 5 31 36 46 77 80 87 100 100 100 100 100 100 100 100 100 100 100 100 100 100 53 80 100 100 100 94 80 95 5 5
24 53 100 100 99 74 79 77 91 100 100 100 100 100 100 100 100 100 100 100 100 64 100 100 100 100 100 100 96 37 51 8
11 100 37 100 100 77 84 27 100 100 97 100 100 100 98 84 68 100 100 93 100 100 100 100 100 100 100 100 100 88 100 100
52 100 98 100 100 100 98 86 88 94 96 100 100 100 100 100 100 100 100 100 100 85 96 100 100 100 100 100 100 100 100 100
100 100 100 100 100 100 62 36 2 7 5 1 4 1 2 4 22 63 100 100 100 100 99 100 100 100 100 100 100 100 100 100
100 100 100 100 100 97 51 22 0 0 0 0 0 0 0 0 4 5 34 20 100 100 100 100 100 100 100 100 100 100 100 100
92 100 100 100 100 73 6 0 0 0 0 0 0 0 2 5 5 5 5 62 95 5 95 100 100 100 99 100 100 100 100 100
100 100 100 100 100 94 42 30 30 8 5 4 5 43 50 28 50 61 84 51 63 32 4 6 99 95 100 100 100 100 100 100
99 100 100 100 100 100 82 10 99 86 73 5 14 54 72 83 100 100 100 100 100 100 87 34 25 100 100 70 100 100 100 100
56 56 100 100 100 100 66 79 63 99 100 82 59 64 97 100 100 100 100 100 100 100 100 100 100 50 81 95 77 100 100 100
11 100 49 97 100 99 88 41 87 100 100 100 100 98 100 100 100 100 100 100 100 100 100 100 100 100 78 93 100 82 100 100
100 84 96 59 88 97 74 99 100 100 100 100 100 100 100 100 100 100 100 100 100 100 100 100 100 100 100 96 100 100 100 72
96 92 100 100 100 100 100 100 100 100 100 100 100 100 100 100 100 100 100 100 100 100 100 100 100 100 100 100 100 100 95 14
75 100 95 100 99 100 100 100 100 100 100 100 100 100 100 100 100 100 100 100 100 100 100 100 100 100 100 100 100 99 7 37

GFSFLT2_prec_cloud_126.txt.gz
Cloud_Cover
0 39 5 52 8 0 0 2 5 5 5 1 41 100 100 61 5 5 18 43 17 33 5 5 4 0 0 0 0 0 0 0
0 0 0 0 0 5 2 3 2 2 5 0 2 5 100 100 100 96 5 5 8 98 5 5 5 5 0 0 0 8 0 0
4 0 0 10 9 5 53 31 4 12 25 56 68 3 16 98 100 100 100 70 6 36 40 7 92 19 1 0 11 0 5 5
5 5 5 33 35 5 3 24 64 96 100 92 98 59 28 28 83 100 100 100 45 100 36 91 70 11 3 49 0 1 6 15
95 38 11 5 5 27 49 16 34 42 80 97 98 99 90 100 56 99 31 99 49 98 100 99 89 43 43 11 35 10 5 57
100 100 74 66 6 5 31 5 32 37 85 78 96 76 91 81 96 97 81 100 94 98 96 72 76 86 90 100 100 61 5 11
100 100 100 100 100 39 65 62 20 42 53 86 29 90 80 61 90 100 100 91 90 99 84 100 100 100 100 100 100 100 100 99
100 100 53 45 100 100 100 98 100 100 94 97 89 77 100 99 47 67 95 82 98 100 100 39 99 100 100 100 100 100 100 100
100 77 88 100 100 100 100 100 100 100 100 100 100 100 100 100 87 93 75 100 61 53 100 100 100 100 100 100 100 100 100 100
99 73 94 75 22 100 100 100 100 100 100 100 100 100 100 100 100 100 100 95 100 97 100 100 100 100 100 100 100 100 67 42
100 100 93 94 100 100 100 100 100 100 100 100 100 100 100 100 98 100 100 100 100 99 100 100 100 100 99 100 100 100 100 99
100 100 100 60 94 100 100 100 100 100 94 46 8 4 3 0 0 1 4 11 36 50 100 100 100 100 100 87 100 100 100 100
100 100 100 100 93 81 100 100 100 61 1 0 0 7 36 19 5 2 0 0 10 52 62 83 96 71 100 100 100 100 100 100
100 95 67 99 100 99 91 100 100 93 34 2 16 34 49 62 100 96 100 69 45 29 20 94 35 96 77 100 100 100 100 100
12 5 5 39 55 95 99 81 67 99 100 50 26 67 100 100 100 100 100 100 100 100 100 86 43 8 82 100 92 100 100 100
18 5 62 5 18 28 76 8 67 19 50 27 39 73 79 93 100 100 100 100 100 100 100 100 100 94 6 60 97 24 43 100
64 80 68 55 82 74 55 64 60 99 20 6 54 26 79 100 100 100 100 100 100 100 100 100 100 100 100 73 94 100 67 100
74 91 78 91 82 83 95 91 90 62 96 48 88 100 99 96 100 100 100 100 100 100 100 100 100 100 100 100 100 100 14 90
84 76 72 83 97 94 99 100 96 99 80 100 100 100 98 100 100 100 100 100 100 100 100 100 100 100 100 100 100 100 96 99
90 73 80 83 100 100 100 100 100 100 100 100 100 100 100 100 100 100 100 100 100 100 100 100 100 100 100 100 100 100 100 100

GFSFLT2_prec_cloud_129.txt.gz
Cloud_Cover
0 3 0 44 0 3 1 2 0 0 0 0 2 3 11 98 98 47 5 4 1 0 5 5 5 5 5 5 0 0 0 8
0 0 0 0 16 6 1 5 5 2 4 5 0 0 0 1 27 98 97 9 34 18 8 4 4 5 5 5 5 0 0 0
5 5 1 0 0 3 53 26 30 17 24 10 69 5 1 2 3 4 5 5 35 100 100 93 9 9 5 5 15 2 3 4
5 5 5 4 0 1 10 36 90 100 42 6 14 7 40 98 73 6 6 10 7 81 100 100 96 12 3 45 5 5 4 5
16 2 17 38 2 0 0 5 31 23 85 77 80 53 74 9 70 100 100 62 44 100 61 70 13 10 11 37 5 5 5 5
22 100 100 100 100 100 100 5 9 18 56 21 77 51 75 35 6 42 99 100 69 6 74 100 100 100 100 100 100 100 62 100
100 100 100 100 100 100 100 94 95 100 100 98 100 100 97 100 99 23 52 82 100 98 40 32 100 100 100 100 100 100 100 100
100 100 100 100 100 100 100 100 100 100 91 85 100 100 100 100 44 42 45 44 22 56 97 96 87 100 100 100 100 100 100 100
100 100 100 100 100 100 91 74 100 100 100 100 100 100 100 100 100 98 97 75 94 100 100 100 100 74 99 100 100 100 100 100
100 100 100 100 100 100 100 100 100 100 100 100 100 100 100 90 100 100 100 100 100 100 58 65 100 100 79 75 100 57 89 100
32 73 79 78 100 100 98 90 100 100 100 100 100 100 100 100 100 100 100 100 100 100 100 100 79 37 98 100 100 66 96 91
5 12 18 33 86 85 88 99 100 100 100 100 100 100 100 45 34 12 9 2 14 82 98 79 45 96 90 99 100 100 100 100
60 100 100 100 100 100 100 100 100 100 100 100 100 73 40 36 48 28 36 5 32 8 26 12 18 54 47 99 100 100 100 100
47 82 87 90 100 98 95 91 76 14 94 100 100 42 40 25 93 100 92 94 99 90 100 60 0 0 19 1 69 100 100 100
71 59 65 49 22 5 5 12 5 22 12 34 100 99 48 87 94 100 100 90 99 100 100 100 97 24 0 72 23 92 100 100
52 53 35 21 32 17 11 5 5 32 14 5 32 32 83 71 75 69 100 100 100 100 100 100 100 100 94 8 28 26 100 100
63 66 79 86 47 57 20 27 30 24 44 59 55 46 26 37 100 100 100 100 100 100 100 100 100 100 100 100 100 28 93 100
36 31 39 69 73 93 85 98 86 78 79 68 96 99 95 78 58 93 87 100 100 100 100 100 100 100 100 100 100 100 96 100
4 17 34 81 94 100 100 100 100 93 93 100 100 100 100 100 100 95 89 99 100 100 100 100 100 100 100 100 100 100 100 100
41 33 45 84 100 100 100 100 100 100 100 100 100 100 100 100 100 100 96 99 100 100 100 100 100 100 100 100 100 100 100 100

GFSFLT2_prec_cloud_132.txt.gz
Cloud_Cover
0 0 0 0 0 0 0 0 0 0 5 4 0 0 0 0 0 0 4 5 5 3 4 5 5 2 1 3 1 1 2 0
5 5 0 0 0 1 5 5 0 5 5 5 5 0 1 0 0 0 0 0 3 5 48 5 97 70 7 82 7 0 0 2
10 5 0 1 0 2 10 0 0 8 16 1 61 94 10 5 5 0 0 0 1 1 0 1 5 8 5 86 88 5 1 0
5 5 5 5 4 3 2 5 0 0 0 3 90 100 100 98 4 4 0 5 31 18 2 2 62 11 10 20 25 96 21 5
12 39 90 100 100 10 12 91 38 51 97 93 30 89 8 100 100 97 100 95 100 100 42 38 5 3 6 40 34 48 100 34
100 100 100 100 99 15 50 96 74 63 13 100 100 100 100 53 100 100 91 83 36 81 100 100 100 59 31 32 100 100 69 100
30 100 100 100 100 100 100 94 100 100 84 100 100 100 100 100 100 100 100 100 100 100 79 44 45 44 99 86 22 38 38 64
5 78 100 100 100 100 100 100 100 100 100 88 92 51 66 100 100 100 100 100 100 99 100 100 100 100 100 88 48 100 62 84
20 33 23 74 100 100 100 100 100 100 86 55 100 100 100 100 100 97 24 100 100 100 74 85 100 100 100 100 100 100 100 100
30 55 21 8 5 39 100 100 100 100 100 100 100 100 100 100 100 100 100 99 14 60 100 58 58 96 83 100 100 100 100 100
4 5 11 7 5 5 11 26 44 79 99 100 100 100 100 100 100 100 35 3 43 88 50 42 31 2 20 100 96 100 100 100
5 5 1 4 1 4 5 5 4 5 57 100 100 100 100 100 100 100 92 27 4 0 0 0 1 0 0 4 5 100 100 100
5 0 0 0 0 5 5 19 34 5 67 100 100 100 100 100 100 100 100 100 97 17 3 0 0 0 0 0 1 69 100 100
5 3 0 0 0 0 0 0 4 5 5 4 16 56 99 100 93 80 99 94 91 100 100 100 23 0 34 0 0 4 100 100
34 5 4 0 0 0 0 0 0 0 6 0 0 1 2 96 90 100 100 100 100 100 100 100 100 100 78 99 42 4 12 100
15 71 4 5 4 0 0 0 1 4 6 4 56 52 34 24 12 100 100 100 100 100 100 100 100 100 100 86 72 99 100 60
7 21 5 46 44 29 20 18 26 3 5 5 5 4 36 85 53 100 100 100 100 100 100 100 100 100 100 100 100 100 93 99
56 5 0 1 93 100 87 73 88 86 94 100 86 100 93 79 27 75 100 100 100 100 100 100 100 100 100 100 100 100 100 100
5 5 3 8 79 100 100 100 100 100 99 100 100 100 100 100 100 100 100 100 100 100 100 100 100 100 100 100 100 100 100 100
5 0 2 47 100 100 100 100 100 100 100 100 100 100 100 100 100 100 100 100 100 100 100 100 100 100 100 100 100 100 100 100